EDT,Max TemperatureF,Mean TemperatureF,Min TemperatureF,Max Dew PointF,MeanDew PointF,Min DewpointF,Max Humidity, Mean Humidity, Min Humidity, Max Sea Level PressureIn, Mean Sea Level PressureIn, Min Sea Level PressureIn, Max VisibilityMiles, Mean VisibilityMiles, Min VisibilityMiles, Max Wind SpeedMPH, Mean Wind SpeedMPH, Max Gust SpeedMPH,PrecipitationIn, CloudCover, Events, WindDirDegrees
2012-10-1,63,57,50,48,46,44,80,68,56,29.93,29.90,29.85,10,10,10,16,7,20,0.00,5,,242
2012-10-2,66,59,52,60,55,45,90,84,77,29.95,29.91,29.87,10,7,2,12,4,15,0.20,8,Rain,59
2012-10-3,71,66,61,63,60,56,97,82,66,30.13,30.02,29.93,10,8,1,16,6,23,T,7,,219
2012-10-4,71,65,58,57,54,50,90,70,49,30.15,30.10,30.04,10,10,10,24,10,32,0.00,5,,210
2012-10-5,66,58,50,58,53,46,83,73,63,30.03,29.97,29.91,10,10,7,24,12,31,0.10,7,Rain,235
2012-10-6,55,51,46,46,40,30,93,70,46,30.05,29.91,29.84,10,8,2,25,12,33,0.65,7,Rain,273
2012-10-7,49,45,40,40,37,34,85,73,61,30.14,30.06,30.02,10,9,2,13,3,16,0.19,7,Rain,259
2012-10-8,50,45,39,41,38,34,92,77,61,30.24,30.21,30.15,10,9,2,13,6,15,0.12,6,Rain,184
2012-10-9,59,48,36,40,36,32,89,70,50,30.22,30.12,29.96,10,10,10,14,6,17,0.00,3,,186
2012-10-10,53,48,43,43,37,30,80,63,46,30.04,29.88,29.78,10,10,10,24,14,32,0.04,6,Rain,235
2012-10-11,56,47,37,36,31,27,70,56,41,30.20,30.10,30.01,10,10,10,28,15,39,0.01,5,,248
2012-10-12,49,40,31,43,31,20,86,62,37,30.46,30.27,30.06,10,10,7,21,8,29,0.05,5,Rain,309
2012-10-13,55,43,30,45,28,22,78,57,36,30.45,30.29,29.95,10,10,8,25,9,31,0.05,5,Rain,165
2012-10-14,75,65,55,59,55,48,90,70,49,29.93,29.82,29.56,10,8,2,37,15,47,0.52,7,Rain,209
2012-10-15,66,56,46,55,46,37,83,71,59,29.84,29.65,29.48,10,10,7,36,20,49,0.01,7,Rain,242
2012-10-16,52,47,41,38,36,34,82,68,54,29.95,29.90,29.83,10,10,10,17,8,22,T,5,Rain,270
2012-10-17,68,54,40,45,40,36,85,64,42,29.91,29.84,29.77,10,10,10,13,7,16,0.00,6,,151
2012-10-18,70,60,49,47,44,37,93,69,44,29.86,29.74,29.65,10,9,4,32,12,41,0.42,6,Rain,166
2012-10-19,66,55,43,49,44,40,93,67,40,29.81,29.71,29.62,10,10,10,14,4,16,0.00,5,,109
2012-10-20,53,50,47,47,43,38,93,78,63,29.81,29.69,29.62,10,9,2,23,12,29,0.56,7,Rain,232
2012-10-21,56,51,45,47,45,42,92,79,66,30.10,30.00,29.84,10,10,10,23,12,30,0.00,4,,246
2012-10-22,63,53,43,48,43,40,92,68,43,30.15,30.11,30.06,10,10,9,14,6,17,0.00,3,,213
2012-10-23,56,54,52,54,52,44,100,86,71,30.08,30.04,30.00,10,3,1,12,6,15,0.85,8,Rain,66
2012-10-24,63,57,51,59,54,48,96,90,84,30.11,30.08,30.06,10,5,1,9,3,13,0.04,8,Rain,46
2012-10-25,79,68,57,57,54,50,90,65,39,30.09,30.03,29.96,10,10,6,18,6,25,T,2,Rain,175
2012-10-26,72,60,47,54,49,42,86,70,53,30.19,30.07,29.97,10,10,6,21,12,25,0.11,4,Rain,267
2012-10-27,48,46,43,46,44,40,93,88,83,30.16,30.07,29.99,10,5,1,18,10,23,0.67,8,Rain,4
2012-10-28,43,42,41,40,39,37,93,88,82,30.10,30.03,29.90,10,6,2,15,10,21,0.30,8,Rain,11
2012-10-29,47,44,41,43,40,38,96,91,86,29.91,29.69,29.18,10,4,1,33,18,43,1.42,8,Rain,357
2012-10-30,55,50,44,52,45,39,93,79,64,29.39,29.20,29.07,10,8,1,31,14,43,0.56,8,Rain,67
2012-10-31,46,43,40,43,39,34,92,81,70,29.47,29.43,29.38,10,10,6,16,7,21,0.10,8,Rain,193